星链-4128 (STARLINK-4128 )

导读 | 豆包AI

STARLINK-4128是美国SpaceX公司星链星座的一员,于2022年7月24日发射入轨,属于星链低轨卫星互联网星座。星链计划旨在构建全球覆盖的卫星互联网,为偏远、基础设施不足地区提供高速低延迟网络服务,同时也支持商业与应急通信应用。该卫星运行在近地轨道,是星链巨型星座组网过程中的重要组成部分,助力星座规模扩张与全球网络覆盖能力提升,但星链的大规模部署也引发了关于太空拥堵与天文观测影响的讨论。

基本信息
目录编号:
53249
目录名称:
STARLINK-4128
国际标识:
2022-086H
轨道中心:
EARTH
卫星名称:
星链-4128
卫星全名:
星链-4128 (STARLINK-4128 )
卫星状态:
在轨 (已飞行1376 天)
发射日期:
2022-07-24 UTC
国别 :
美国 (US)
星等 :
--
轨道信息
数据来源 国际轨道数据
星历时间: 2026-04-30T21:50:15+0800
7小时前
查看轨道信息
半长轴: 6917.88km
偏心率: 0.0001283
轨道倾角: 53.218°
近地点辐角 91.513°
升交点赤经 321.199°
平近点角 268.601°
近地点: 538.855km
远地点: 540.631km
周期: 95.438分钟
每日圈数: 15.088403
详细信息
固有亮度:
5
最大亮度:
2.5
卫星平台:
Starlink v1.5
覆盖范围:
全球
运营商:
太空探索技术公司
运营商所在国:
美国
制造商(研发单位):
太空探索技术公司
制造商所在国:
美国
使用方式:
暂无
卫星简介
星链(Starlink)计划是由太空探索技术公司(SpaceX)提出的一个巨型低轨卫星互联网星座项目,计划在2019年至2024年间在太空搭建由约1.2万颗卫星组成的“星链”网络,其中1584颗将部署在地球上空550千米处的近地轨道,并从2020年开始工作。该卫星仍在工作。
2D轨道图
3D轨道图
轨道高度分析图
轨道倾角分析图
轨道综合分析图
查看轨道综合分析图